Location: St. Malo Provincial Park
(49.3214°N, 96.9305°W)
Time: 05:41:29
(UTC-06:00)

Daily predictions for brighter satellites

Satellite Brightness Start Highest point End
(mag) Time Altitude Azimuth Time Altitude Azimuth Time Altitude Azimuth
ATLAS 3B R/B 4.4 03:55:39 26° NNE 03:55:39 26° NNE 03:58:28 10° NE
CENTAUR R/B 3.9 04:02:31 35° ENE 04:02:31 35° ENE 04:06:56 10° NE
CZ-4C R/B 3.5 04:34:59 45° NNE 04:35:44 46° NE 04:43:06 10° ESE
Nadezhda 1 Rocket 4.3 04:47:39 63° ESE 04:47:39 63° ESE 04:53:17 10° SSE
CZ-4B R/B 4.4 04:41:52 10° NNE 04:44:59 34° NE 04:44:59 34° NE
COSMOS 2455 3.8 04:51:14 38° SSE 04:52:36 44° ESE 04:58:17 10° NE
Cosmos 2263 Rocket 3.0 05:03:04 43° NNE 05:03:04 43° NNE 05:06:46 10° NNE
NOSS 3-2 (C) 4.3 05:05:22 42° N 05:05:22 42° N 05:10:51 10° NE
Lacrosse 5 2.7 05:15:17 42° SSE 05:15:17 42° SSE 05:18:40 10° SE
Cosmos 2297 Rocket 4.5 05:18:27 11° N 05:18:27 11° N 05:19:02 10° N
USA 234 3.5 05:14:56 10° ENE 05:21:15 52° NNW 05:21:52 51° NNW
Cosmos 1953 4.1 05:24:47 27° NNE 05:24:47 27° NNE 05:26:49 10° NNE
Cosmos 1745 Rocket 3.8 05:27:48 58° SW 05:29:00 74° W 05:35:19 10° N
SKYMED 2 4.3 05:30:26 10° SSE 05:33:29 45° SSE 05:33:29 45° SSE
Cosmos 1386 Rocket 4.4 05:29:04 10° SSW 05:35:26 80° W 05:41:54 10° N
Meteor 1-21 Rocket 4.2 05:36:08 22° NNW 05:40:04 85° W 05:45:51 10° S
Cosmos 1844 Rocket 3.5 05:37:52 10° S 05:43:12 50° ESE 05:48:35 10° NE
ATLAS 3B R/B 3.8 05:42:54 26° NNW 05:43:52 27° NNW 05:49:29 10° NE
Cosmos 1812 Rocket 3.7 05:44:58 63° N 05:44:58 63° N 05:48:46 10° N
Cosmos 1190 Rocket 3.8 05:44:53 35° SSW 05:47:09 87° WNW 05:52:23 10° NNE
Cosmos 332 Rocket 4.4 05:46:09 24° N 05:48:57 55° ENE 05:53:45 10° SE
CENTAUR R/B 2.8 05:49:43 45° WNW 05:50:59 51° NW 05:58:06 10° NE
IDEFIX/ARIANE 42P 2.7 05:48:03 10° NNE 05:53:22 76° ESE 05:58:37 10° S
COSMOS 2406 3.1 05:51:52 38° NNW 05:54:11 82° WSW 05:59:51 10° SSE
Cosmos 2082 Rocket 3.8 05:50:56 11° NNW 05:55:35 29° NE 06:00:27 10° ESE
SL-14 R/B 3.3 05:55:26 51° N 05:56:19 76° E 06:00:09 10° SSE
Cosmos 2084 Rocket 3.7 05:57:14 50° N 05:57:14 50° N 06:00:40 10° NE
Okean-O 2.5 05:57:51 10° NNE 06:02:19 87° WNW 06:06:46 10° SSW
Cosmos 1315 Rocket 2.8 06:03:48 31° N 06:05:36 80° ENE 06:09:35 10° SSE
Okean 3 Rocket 3.4 06:03:12 26° NNW 06:05:40 80° W 06:10:04 10° S
BREEZE-M DEB (TANK) 2.7 06:07:46 61° W 06:08:22 90° N 06:15:39 10° E
Cosmos 1076 Rocket 3.4 06:08:58 27° NNW 06:11:18 73° W 06:15:36 10° S
ATLAS CENTAUR R/B 2.3 06:10:05 27° N 06:11:50 43° NE 06:15:50 10° ESE
Feng Yun 1-1 Rocket 4.0 06:06:25 10° NNE 06:11:53 74° WNW 06:17:15 10° SSW
DMSP B5D1-3 4.4 06:07:22 10° S 06:12:29 67° WSW 06:17:02 13° NNW
Radarsat Rocket 4.2 06:07:00 10° NNE 06:14:10 88° ESE 06:20:28 10° SSW
Cosmos 614 Rocket 4.0 06:10:39 10° SSW 06:15:46 77° ESE 06:20:52 10° NNE
Cosmos 1766 Rocket 3.7 06:11:42 10° N 06:16:05 75° E 06:20:28 10° SSE
CZ-3B R/B 3.1 06:16:19 56° WNW 06:16:56 84° SSW 06:24:26 10° ESE
Cosmos 1709 Rocket 4.0 06:13:59 10° SSW 06:20:12 62° WNW 06:26:33 10° N
COSMO-SKYMED 1 3.5 06:19:07 10° SSW 06:22:05 29° WSW 06:22:05 29° WSW
Cosmos 2208 Rocket 4.3 06:17:49 11° NNW 06:23:05 72° ENE 06:28:32 10° SSE
CZ-4C R/B 2.9 06:20:10 24° NW 06:24:44 64° SW 06:32:33 10° SSE
Cosmos 2184 Rocket 4.4 06:19:29 10° S 06:25:39 67° E 06:31:55 10° NNE
Thor Agena Rocket 3.7 06:20:43 10° SSE 06:25:56 80° ENE 06:31:15 10° NNW
CZ-4B R/B 4.1 06:23:04 10° N 06:26:54 25° NW 06:26:54 25° NW
Cosmos 2058 4.2 06:23:37 10° N 06:27:40 42° ENE 06:31:41 10° SSE
EO 1 Del DPAF 3.9 06:25:25 10° SSW 06:28:36 33° WSW 06:28:36 33° WSW
SL-08 ROCKET BODY 4.2 06:24:32 10° SSW 06:30:22 72° W 06:36:17 10° N
Cosmos 1626 2.1 06:28:39 10° N 06:32:23 87° E 06:36:07 10° S
CZ-2C R/B 2.1 06:28:05 10° N 06:32:39 67° WNW 06:37:13 10° SSW
Cosmos 407 Rocket 3.8 06:30:14 17° WSW 06:33:55 42° WNW 06:38:55 10° NNE
Cosmos 1833 Rocket 3.4 06:29:49 10° NNW 06:35:22 52° NE 06:40:51 10° SE
NOAA 6 4.3 06:31:14 10° N 06:36:07 43° WNW 06:41:01 10° SW
Cosmos 676 Rocket 4.0 06:31:18 10° SW 06:36:24 58° WNW 06:41:33 10° NNE
Cosmos 371 Rocket 3.2 06:33:16 16° NNW 06:37:05 67° WSW 06:41:55 10° S
Cosmos 1470 3.4 06:34:11 10° SW 06:37:49 33° WNW 06:41:30 10° N
COSMOS 2455 3.2 06:34:27 19° WSW 06:38:34 45° NW 06:44:22 10° NNE
Cosmos 1400 Rocket 4.2 06:41:20 22° WSW 06:41:20 22° WSW 06:43:47 10° SW
Cosmos 1328 3.9 06:38:17 12° NNW 06:41:53 53° W 06:45:46 10° S
Nadezhda 3 Rocket 4.5 06:37:01 10° N 06:43:23 65° ENE 06:49:39 10° SSE
Abrixas rocket 2.3 06:43:12 31° W 06:44:32 67° S 06:47:46 10° ESE
Cosmos 2263 Rocket 3.4 06:44:47 20° NW 06:45:54 21° NW 06:50:06 10° N
Cosmos 1850 Rocket 4.2 06:41:43 10° SSW 06:46:57 76° ESE 06:52:17 10° NNE
Cosmos 1954 Rocket 4.1 06:44:21 10° SW 06:49:23 53° WNW 06:54:30 10° NNE
BREEZE-M DEB (TANK) 3.6 06:47:25 23° W 06:49:32 75° SSW 06:59:56 10° ESE
PAYLOAD A 4.4 06:45:08 10° N 06:49:43 37° WNW 06:54:09 10° SW
Cosmos 1140 Rocket 3.5 06:47:19 10° SW 06:52:20 54° WNW 06:57:24 10° NNE
Lacrosse 5 3.6 06:54:30 14° WSW 06:55:50 16° WSW 06:58:48 10° SSW
SL-27 R/B 2.6 06:54:15 10° NNW 06:57:55 83° ENE 07:01:34 10° SSE
CZ-4 R/B 2.1 06:54:57 10° NNE 06:59:07 58° E 07:03:09 10° S
SMAP 3.2 06:54:52 10° NNE 06:59:34 79° ESE 07:04:13 10° S
Cosmos 1953 4.0 07:00:36 16° NW 07:00:36 16° NW 07:02:21 10° NNW
Cosmos 2278 Rocket 2.5 06:56:35 10° SSW 07:02:13 75° ESE 07:07:54 10° NNE
Cosmos 1814 Rocket 4.4 06:57:31 10° NNW 07:02:47 67° ENE 07:07:56 10° SSE
USA 234 3.8 06:57:28 10° ENE 07:03:40 47° N 07:09:13 13° WNW
Cosmos 1570 Rocket 4.2 07:00:01 10° NNW 07:05:04 50° WSW 07:10:05 10° S
Cosmos 2074 Rocket 4.0 06:59:22 10° SSW 07:05:33 64° WNW 07:11:45 10° N
Cosmos 468 Rocket 3.9 07:00:53 10° NNW 07:06:04 78° WSW 07:11:16 10° SSE
MSX 4.1 07:06:16 10° N 07:11:42 44° WNW 07:17:05 10° SW
Cosmos 1408 Rocket 4.2 07:08:21 10° NNW 07:12:18 35° W 07:16:16 10° SSW
Meteor 2-19 Rocket 4.4 07:07:53 10° SSW 07:13:54 61° WNW 07:19:55 10° N
CORIOLIS 4.3 07:10:06 10° NNE 07:15:31 83° ESE 07:20:56 10° SSW
Cosmos 841 Rocket 3.9 07:12:05 10° NNW 07:17:16 63° ENE 07:22:22 10° SE
CSL-04 Rocket 3.6 07:13:05 10° NNE 07:18:33 78° WNW 07:23:53 10° SSW
Cosmos 1174 3.8 07:15:49 10° NW 07:20:24 74° WSW 07:24:02 10° SSE
Cosmos 1703 3.7 07:16:41 10° NNW 07:20:27 42° W 07:24:11 10° SSW
Cosmos-2242 3.6 07:18:36 10° SW 07:22:36 36° WNW 07:26:36 10° N
Cosmos 1500 Rocket 3.6 07:18:47 10° NNW 07:23:13 67° W 07:27:35 10° S
USA 229 DEB 4.3 07:17:06 10° SSW 07:23:44 62° SE 07:30:35 10° NE
USA 229 4.4 07:17:12 10° SSW 07:23:50 61° SE 07:30:40 10° NE
Cosmos 1844 Rocket 3.3 07:22:17 10° WSW 07:27:19 34° NW 07:32:23 10° NNE
Cosmos 1908 3.2 07:23:23 10° S 07:27:19 85° WNW 07:31:17 10° N
Meteor 2-1 Rocket 4.2 07:23:38 10° SSW 07:29:08 85° WNW 07:34:45 10° N
Cosmos 2341 Rocket 4.2 07:23:47 10° S 07:30:00 79° E 07:36:14 10° NNE
Cosmos 1844 4.2 07:26:22 10° WSW 07:31:45 40° NW 07:37:06 10° NNE
Cosmos 1763 Rocket 3.4 07:26:55 10° NNW 07:32:01 77° WSW 07:37:06 10° SSE
IDEFIX/ARIANE 42P 3.8 07:28:40 10° NNW 07:32:25 20° WNW 07:36:08 10° WSW
COSMOS 2487 3.8 07:32:09 10° N 07:35:30 38° ENE 07:38:51 10° SE
Cosmos 1743 Rocket 4.0 07:31:36 10° NNW 07:35:38 39° W 07:39:39 10° SSW
SeaSat 1 3.0 07:31:16 10° NE 07:36:13 67° ESE 07:41:07 10° SSW
ATLAS 3B R/B 4.0 07:31:08 10° NW 07:36:47 26° NNE 07:42:16 10° ENE
Cosmos 1741 Rocket 4.3 07:32:15 10° SW 07:37:18 47° WNW 07:42:24 10° NNE
Okean-O 4.3 07:36:02 10° NNW 07:38:08 13° NW 07:40:14 10° W
Cosmos 1484 Rocket 3.6 07:36:08 10° N 07:39:19 27° WNW 07:42:30 10° SW
Cosmos 2082 Rocket 2.3 07:34:31 10° NW 07:40:05 61° WSW 07:45:36 10° SSE
ALOS 2.7 07:36:35 10° NNE 07:41:16 72° ESE 07:45:56 10° S
Tiangong 2 4.2 07:40:32 10° S 07:42:09 13° SSE 07:43:48 10° SE
USA 81 4.1 07:37:57 10° NNW 07:43:10 62° W 07:48:21 10° S
CENTAUR R/B 3.9 07:37:37 10° WNW 07:43:25 28° N 07:49:51 10° NE
Ariane Rocket 3.1 07:38:52 10° N 07:43:51 54° WNW 07:48:48 10° SW
Cosmos 304 Rocket 4.2 07:40:12 10° NW 07:44:46 45° WSW 07:49:19 10° S
CSL-04 Debris 4.4 07:42:07 10° N 07:47:27 52° WNW 07:52:45 10° SW
